User: anonymous   Login
Location: Caltech
(34.1382°N, 118.1253°W)
Time: 04:36:46
(UTC-07:00)
Language:

Cosmos 2219 Rocket - Orbit

View from above orbital plane
View from above orbital plane
View from above satellite
View from above satellite

Ground track
Ground track

The orbit data is extracted from the following two-line orbital elements,

1 22220U 92076B   17082.88232022 -.00000245 +00000-0 -98925-4 0  9997
2 22220 070.9992 238.8095 0011410 034.3107 074.7828 14.16413141258362
Epoch (UTC): 23 March 2017 21:10:32
Eccentricity: 0.0011410
inclination: 70.9992°
perigee height: 829 km
apogee height: 846 km
right ascension of ascending node: 238.8095°
argument of perigee: 34.3107°
revolutions per day: 14.16413141
mean anomaly at epoch: 74.7828°
orbit number at epoch: 25836

The dashed part of the orbit path shows where the satellite is in the earth's shadow,  

DLR